Time,TemperatureF,DewpointF,PressureIn,WindDirection,WindDirectionDegrees,WindSpeedMPH,WindSpeedGustMPH,Humidity,HourlyPrecipIn,Conditions,Clouds,dailyrainin,SoftwareType,DateUTC
2013-02-25 00:00:00,42.4,26.9,30.04,North,11,1.0,1.0,54,0.00,,,0.00,Wunderground v.1.15,2013-02-25 05:00:00,
2013-02-25 00:01:00,42.3,27.3,30.04,North,11,1.0,2.0,55,0.00,,,0.00,Wunderground v.1.15,2013-02-25 05:01:00,
2013-02-25 00:03:00,42.2,26.7,30.04,North,11,1.0,4.0,54,0.00,,,0.00,Wunderground v.1.15,2013-02-25 05:03:00,
2013-02-25 00:08:00,41.8,28.1,30.05,North,11,1.0,4.0,58,0.00,,,0.00,Wunderground v.1.15,2013-02-25 05:08:00,
2013-02-25 00:14:00,41.0,26.9,30.05,North,11,1.0,1.0,57,0.00,,,0.00,Wunderground v.1.15,2013-02-25 05:14:00,
2013-02-25 00:19:00,40.6,26.5,30.06,North,11,0.0,1.0,57,0.00,,,0.00,Wunderground v.1.15,2013-02-25 05:19:00,
2013-02-25 00:25:00,39.7,26.1,30.05,North,11,0.0,1.0,58,0.00,,,0.00,Wunderground v.1.15,2013-02-25 05:25:00,
2013-02-25 00:31:00,39.5,26.3,30.06,North,11,0.0,2.0,59,0.00,,,0.00,Wunderground v.1.15,2013-02-25 05:31:00,
2013-02-25 00:37:00,39.9,26.3,30.06,NNE,12,1.0,6.0,58,0.00,,,0.00,Wunderground v.1.15,2013-02-25 05:37:00,
2013-02-25 00:43:00,40.7,26.2,30.06,NNE,19,2.0,3.0,56,0.00,,,0.00,Wunderground v.1.15,2013-02-25 05:43:00,
2013-02-25 00:49:00,40.9,26.4,30.06,NNE,19,2.0,3.0,56,0.00,,,0.00,Wunderground v.1.15,2013-02-25 05:49:00,
2013-02-25 00:55:00,41.0,26.1,30.06,NNE,19,2.0,3.0,55,0.00,,,0.00,Wunderground v.1.15,2013-02-25 05:55:00,
2013-02-25 01:00:00,40.6,26.1,30.06,NNE,19,2.0,2.0,56,0.00,,,0.00,Wunderground v.1.15,2013-02-25 06:00:00,
2013-02-25 01:06:00,40.9,26.0,30.06,NE,34,3.0,5.0,55,0.00,,,0.00,Wunderground v.1.15,2013-02-25 06:06:00,
2013-02-25 01:12:00,41.4,26.0,30.06,NE,42,4.0,5.0,54,0.00,,,0.00,Wunderground v.1.15,2013-02-25 06:12:00,
2013-02-25 01:17:00,41.6,25.7,30.06,NNE,33,4.0,5.0,53,0.00,,,0.00,Wunderground v.1.15,2013-02-25 06:17:00,
2013-02-25 01:23:00,41.5,26.1,30.07,NNE,30,4.0,4.0,54,0.00,,,0.00,Wunderground v.1.15,2013-02-25 06:23:00,
2013-02-25 01:29:00,41.4,26.0,30.07,NE,42,3.0,4.0,54,0.00,,,0.00,Wunderground v.1.15,2013-02-25 06:29:00,
2013-02-25 01:35:00,41.3,25.4,30.07,NE,37,4.0,5.0,53,0.00,,,0.00,Wunderground v.1.15,2013-02-25 06:35:00,
2013-02-25 01:41:00,40.9,25.5,30.07,NNE,28,4.0,4.0,54,0.00,,,0.00,Wunderground v.1.15,2013-02-25 06:41:00,
2013-02-25 01:47:00,40.6,25.7,30.08,NE,40,3.0,5.0,55,0.00,,,0.00,Wunderground v.1.15,2013-02-25 06:47:00,
2013-02-25 01:53:00,40.4,25.5,30.07,NE,34,3.0,4.0,55,0.00,,,0.00,Wunderground v.1.15,2013-02-25 06:53:00,
2013-02-25 01:59:00,39.8,25.8,30.07,NE,38,4.0,6.0,57,0.00,,,0.00,Wunderground v.1.15,2013-02-25 06:59:00,
2013-02-25 02:04:00,39.7,25.7,30.08,NE,46,4.0,7.0,57,0.00,,,0.00,Wunderground v.1.15,2013-02-25 07:04:00,
2013-02-25 02:10:00,39.6,25.6,30.08,NNE,32,4.0,4.0,57,0.00,,,0.00,Wunderground v.1.15,2013-02-25 07:10:00,
2013-02-25 02:16:00,39.3,25.7,30.08,NE,36,4.0,6.0,58,0.00,,,0.00,Wunderground v.1.15,2013-02-25 07:16:00,
2013-02-25 02:22:00,38.9,25.8,30.08,NE,53,5.0,5.0,59,0.00,,,0.00,Wunderground v.1.15,2013-02-25 07:22:00,
2013-02-25 02:28:00,38.4,26.1,30.08,NE,37,5.0,6.0,61,0.00,,,0.00,Wunderground v.1.15,2013-02-25 07:28:00,
2013-02-25 02:34:00,38.0,26.5,30.08,NE,39,5.0,6.0,63,0.00,,,0.00,Wunderground v.1.15,2013-02-25 07:34:00,
2013-02-25 02:40:00,37.9,26.8,30.09,NNE,32,5.0,8.0,64,0.00,,,0.00,Wunderground v.1.15,2013-02-25 07:40:00,
2013-02-25 02:45:00,37.9,26.8,30.08,NNE,29,6.0,8.0,64,0.00,,,0.00,Wunderground v.1.15,2013-02-25 07:45:00,
2013-02-25 02:51:00,37.6,26.9,30.08,NE,50,6.0,6.0,65,0.00,,,0.00,Wunderground v.1.15,2013-02-25 07:51:00,
2013-02-25 02:57:00,37.3,27.0,30.08,NE,54,6.0,7.0,66,0.00,,,0.00,Wunderground v.1.15,2013-02-25 07:57:00,
2013-02-25 03:03:00,37.1,27.2,30.08,NE,47,5.0,6.0,67,0.00,,,0.00,Wunderground v.1.15,2013-02-25 08:03:00,
2013-02-25 03:09:00,37.0,27.1,30.08,NNE,26,5.0,8.0,67,0.00,,,0.00,Wunderground v.1.15,2013-02-25 08:09:00,
2013-02-25 03:15:00,36.7,27.1,30.08,NE,40,5.0,5.0,68,0.00,,,0.00,Wunderground v.1.15,2013-02-25 08:15:00,
2013-02-25 03:21:00,36.4,26.8,30.07,NE,36,5.0,7.0,68,0.00,,,0.00,Wunderground v.1.15,2013-02-25 08:21:00,
2013-02-25 03:27:00,36.2,27.0,30.07,NE,37,5.0,7.0,69,0.00,,,0.00,Wunderground v.1.15,2013-02-25 08:27:00,
2013-02-25 03:33:00,36.0,27.2,30.08,NE,42,4.0,7.0,70,0.00,,,0.00,Wunderground v.1.15,2013-02-25 08:33:00,
2013-02-25 03:38:00,35.8,27.0,30.08,NE,42,5.0,9.0,70,0.00,,,0.00,Wunderground v.1.15,2013-02-25 08:38:00,
2013-02-25 03:44:00,35.6,27.1,30.09,NE,55,5.0,6.0,71,0.00,,,0.00,Wunderground v.1.15,2013-02-25 08:44:00,
2013-02-25 03:50:00,35.5,27.0,30.09,NE,53,4.0,6.0,71,0.00,,,0.00,Wunderground v.1.15,2013-02-25 08:50:00,
2013-02-25 03:56:00,35.5,27.0,30.09,ENE,58,5.0,7.0,71,0.00,,,0.00,Wunderground v.1.15,2013-02-25 08:56:00,
2013-02-25 04:02:00,35.3,27.2,30.09,NNE,31,4.0,5.0,72,0.00,,,0.00,Wunderground v.1.15,2013-02-25 09:02:00,
2013-02-25 04:08:00,35.1,26.6,30.10,NE,51,4.0,7.0,71,0.00,,,0.00,Wunderground v.1.15,2013-02-25 09:08:00,
2013-02-25 04:14:00,35.1,26.6,30.10,NE,42,5.0,10.0,71,0.00,,,0.00,Wunderground v.1.15,2013-02-25 09:14:00,
2013-02-25 04:20:00,35.0,26.5,30.11,ENE,58,5.0,5.0,71,0.00,,,0.00,Wunderground v.1.15,2013-02-25 09:20:00,
2013-02-25 04:26:00,35.0,26.5,30.11,NE,51,5.0,10.0,71,0.00,,,0.00,Wunderground v.1.15,2013-02-25 09:26:00,
2013-02-25 04:32:00,34.7,26.3,30.11,NNE,28,4.0,4.0,71,0.00,,,0.00,Wunderground v.1.15,2013-02-25 09:32:00,
2013-02-25 04:38:00,34.6,26.2,30.11,ENE,67,4.0,6.0,71,0.00,,,0.00,Wunderground v.1.15,2013-02-25 09:38:00,
2013-02-25 04:43:00,34.5,25.7,30.11,NNE,32,5.0,7.0,70,0.00,,,0.00,Wunderground v.1.15,2013-02-25 09:43:00,
2013-02-25 04:49:00,34.4,26.0,30.11,ENE,59,5.0,7.0,71,0.00,,,0.00,Wunderground v.1.15,2013-02-25 09:49:00,
2013-02-25 04:55:00,34.3,25.9,30.12,ENE,63,5.0,6.0,71,0.00,,,0.00,Wunderground v.1.15,2013-02-25 09:55:00,
2013-02-25 05:00:00,34.3,25.5,30.12,NE,44,5.0,5.0,70,0.00,,,0.00,Wunderground v.1.15,2013-02-25 10:00:00,
2013-02-25 05:06:00,34.2,25.4,30.13,ENE,57,5.0,8.0,70,0.00,,,0.00,Wunderground v.1.15,2013-02-25 10:06:00,
2013-02-25 05:12:00,34.0,25.2,30.13,NE,52,4.0,4.0,70,0.00,,,0.00,Wunderground v.1.15,2013-02-25 10:12:00,
2013-02-25 05:18:00,33.9,25.1,30.12,NE,45,3.0,7.0,70,0.00,,,0.00,Wunderground v.1.15,2013-02-25 10:18:00,
2013-02-25 05:24:00,33.9,24.8,30.13,ENE,71,5.0,11.0,69,0.00,,,0.00,Wunderground v.1.15,2013-02-25 10:24:00,
2013-02-25 05:29:00,33.8,24.7,30.13,NNE,26,5.0,11.0,69,0.00,,,0.00,Wunderground v.1.15,2013-02-25 10:29:00,
2013-02-25 05:35:00,33.7,25.0,30.14,NE,51,4.0,7.0,70,0.00,,,0.00,Wunderground v.1.15,2013-02-25 10:35:00,
2013-02-25 05:41:00,33.6,24.9,30.14,NE,51,4.0,4.0,70,0.00,,,0.00,Wunderground v.1.15,2013-02-25 10:41:00,
2013-02-25 05:47:00,33.4,24.7,30.14,ENE,74,3.0,4.0,70,0.00,,,0.00,Wunderground v.1.15,2013-02-25 10:47:00,
2013-02-25 05:53:00,33.3,24.6,30.14,ENE,64,3.0,5.0,70,0.00,,,0.00,Wunderground v.1.15,2013-02-25 10:53:00,
2013-02-25 05:59:00,33.2,24.8,30.14,NE,45,4.0,6.0,71,0.00,,,0.00,Wunderground v.1.15,2013-02-25 10:59:00,
2013-02-25 06:05:00,33.2,24.5,30.14,NE,53,4.0,5.0,70,0.00,,,0.00,Wunderground v.1.15,2013-02-25 11:05:00,
2013-02-25 06:11:00,33.1,24.4,30.15,ENE,78,4.0,6.0,70,0.00,,,0.00,Wunderground v.1.15,2013-02-25 11:11:00,
2013-02-25 06:17:00,33.0,24.3,30.16,NE,54,5.0,6.0,70,0.00,,,0.00,Wunderground v.1.15,2013-02-25 11:17:00,
2013-02-25 06:22:00,32.9,24.2,30.15,NE,53,4.0,5.0,70,0.00,,,0.00,Wunderground v.1.15,2013-02-25 11:22:00,
2013-02-25 06:28:00,32.8,24.1,30.15,ENE,59,4.0,7.0,70,0.00,,,0.00,Wunderground v.1.15,2013-02-25 11:28:00,
2013-02-25 06:34:00,32.8,24.1,30.15,NE,38,4.0,4.0,70,0.00,,,0.00,Wunderground v.1.15,2013-02-25 11:34:00,
2013-02-25 06:40:00,32.6,24.2,30.16,ENE,65,3.0,3.0,71,0.00,,,0.00,Wunderground v.1.15,2013-02-25 11:40:00,
2013-02-25 06:46:00,32.6,24.2,30.15,NE,55,3.0,6.0,71,0.00,,,0.00,Wunderground v.1.15,2013-02-25 11:46:00,
2013-02-25 06:52:00,32.5,24.1,30.15,ENE,58,4.0,5.0,71,0.00,,,0.00,Wunderground v.1.15,2013-02-25 11:52:00,
2013-02-25 06:58:00,32.5,24.1,30.15,NE,42,3.0,5.0,71,0.00,,,0.00,Wunderground v.1.15,2013-02-25 11:58:00,
2013-02-25 07:04:00,32.4,24.0,30.16,ENE,69,3.0,5.0,71,0.00,,,0.00,Wunderground v.1.15,2013-02-25 12:04:00,
2013-02-25 07:10:00,32.3,23.9,30.15,NNE,26,4.0,5.0,71,0.00,,,0.00,Wunderground v.1.15,2013-02-25 12:10:00,
2013-02-25 07:15:00,32.3,23.9,30.16,ENE,71,4.0,6.0,71,0.00,,,0.00,Wunderground v.1.15,2013-02-25 12:15:00,
2013-02-25 07:21:00,32.3,23.9,30.16,NNE,18,4.0,4.0,71,0.00,,,0.00,Wunderground v.1.15,2013-02-25 12:21:00,
2013-02-25 07:27:00,32.3,23.9,30.16,ENE,63,4.0,5.0,71,0.00,,,0.00,Wunderground v.1.15,2013-02-25 12:27:00,
2013-02-25 07:33:00,32.3,23.9,30.16,NNE,32,4.0,8.0,71,0.00,,,0.00,Wunderground v.1.15,2013-02-25 12:33:00,
2013-02-25 07:38:00,32.3,24.3,30.16,NE,51,4.0,8.0,72,0.00,,,0.00,Wunderground v.1.15,2013-02-25 12:38:00,
2013-02-25 07:43:00,32.3,23.9,30.17,NE,51,4.0,6.0,71,0.00,,,0.00,Wunderground v.1.15,2013-02-25 12:43:00,
2013-02-25 07:49:00,32.4,24.0,30.17,NE,38,4.0,9.0,71,0.00,,,0.00,Wunderground v.1.15,2013-02-25 12:49:00,
2013-02-25 07:55:00,32.5,23.8,30.18,NE,44,5.0,8.0,70,0.00,,,0.00,Wunderground v.1.15,2013-02-25 12:55:00,
2013-02-25 08:00:00,32.5,23.8,30.18,NE,43,4.0,4.0,70,0.00,,,0.00,Wunderground v.1.15,2013-02-25 13:00:00,
2013-02-25 08:05:00,32.6,23.2,30.19,NE,56,4.0,6.0,68,0.00,,,0.00,Wunderground v.1.15,2013-02-25 13:05:00,
2013-02-25 08:11:00,32.7,22.9,30.19,NE,42,6.0,6.0,67,0.00,,,0.00,Wunderground v.1.15,2013-02-25 13:11:00,
2013-02-25 08:16:00,32.8,22.3,30.20,NE,34,6.0,6.0,65,0.00,,,0.00,Wunderground v.1.15,2013-02-25 13:16:00,
2013-02-25 08:22:00,33.0,22.5,30.20,ENE,62,5.0,6.0,65,0.00,,,0.00,Wunderground v.1.15,2013-02-25 13:22:00,
2013-02-25 08:28:00,33.2,22.3,30.20,NE,42,5.0,6.0,64,0.00,,,0.00,Wunderground v.1.15,2013-02-25 13:28:00,
2013-02-25 08:34:00,33.3,22.4,30.20,NE,48,4.0,8.0,64,0.00,,,0.00,Wunderground v.1.15,2013-02-25 13:34:00,
2013-02-25 08:40:00,33.4,22.1,30.20,NE,39,4.0,4.0,63,0.00,,,0.00,Wunderground v.1.15,2013-02-25 13:40:00,
2013-02-25 08:46:00,33.6,22.3,30.20,NE,36,5.0,8.0,63,0.00,,,0.00,Wunderground v.1.15,2013-02-25 13:46:00,
2013-02-25 08:52:00,33.7,22.1,30.20,ENE,67,5.0,5.0,62,0.00,,,0.00,Wunderground v.1.15,2013-02-25 13:52:00,
2013-02-25 08:58:00,33.9,22.2,30.21,SE,139,5.0,6.0,62,0.00,,,0.00,Wunderground v.1.15,2013-02-25 13:58:00,
2013-02-25 09:03:00,34.2,22.5,30.21,ENE,60,5.0,6.0,62,0.00,,,0.00,Wunderground v.1.15,2013-02-25 14:03:00,
2013-02-25 09:09:00,34.5,22.8,30.21,NE,54,5.0,7.0,62,0.00,,,0.00,Wunderground v.1.15,2013-02-25 14:09:00,
2013-02-25 09:14:00,34.9,22.8,30.22,NE,35,4.0,5.0,61,0.00,,,0.00,Wunderground v.1.15,2013-02-25 14:14:00,
2013-02-25 09:20:00,34.8,21.9,30.22,NE,55,5.0,5.0,59,0.00,,,0.00,Wunderground v.1.15,2013-02-25 14:20:00,
2013-02-25 09:26:00,34.9,22.0,30.22,NNE,26,6.0,7.0,59,0.00,,,0.00,Wunderground v.1.15,2013-02-25 14:26:00,
2013-02-25 09:32:00,35.1,22.2,30.22,NE,48,6.0,7.0,59,0.00,,,0.00,Wunderground v.1.15,2013-02-25 14:32:00,
2013-02-25 09:38:00,35.5,22.6,30.22,NNE,32,5.0,7.0,59,0.00,,,0.00,Wunderground v.1.15,2013-02-25 14:38:00,
2013-02-25 09:44:00,35.7,22.4,30.23,NNE,15,4.0,6.0,58,0.00,,,0.00,Wunderground v.1.15,2013-02-25 14:44:00,
2013-02-25 09:50:00,35.8,22.0,30.23,NE,43,5.0,7.0,57,0.00,,,0.00,Wunderground v.1.15,2013-02-25 14:50:00,
2013-02-25 09:56:00,35.8,22.9,30.23,NNE,19,6.0,8.0,59,0.00,,,0.00,Wunderground v.1.15,2013-02-25 14:56:00,
2013-02-25 10:02:00,36.0,22.6,30.23,East,90,6.0,6.0,58,0.00,,,0.00,Wunderground v.1.15,2013-02-25 15:02:00,
2013-02-25 10:08:00,36.2,22.8,30.23,ENE,66,5.0,7.0,58,0.00,,,0.00,Wunderground v.1.15,2013-02-25 15:08:00,
2013-02-25 10:14:00,36.4,23.0,30.23,ENE,57,4.0,6.0,58,0.00,,,0.00,Wunderground v.1.15,2013-02-25 15:14:00,
2013-02-25 10:20:00,36.6,22.4,30.23,ENE,78,4.0,4.0,56,0.00,,,0.00,Wunderground v.1.15,2013-02-25 15:20:00,
2013-02-25 10:26:00,36.8,23.8,30.23,NNE,15,4.0,7.0,59,0.00,,,0.00,Wunderground v.1.15,2013-02-25 15:26:00,
2013-02-25 10:32:00,37.1,23.3,30.22,NE,43,4.0,8.0,57,0.00,,,0.00,Wunderground v.1.15,2013-02-25 15:32:00,
2013-02-25 10:38:00,36.8,22.6,30.22,ENE,61,4.0,8.0,56,0.00,,,0.00,Wunderground v.1.15,2013-02-25 15:38:00,
2013-02-25 10:44:00,37.3,23.0,30.22,NE,54,3.0,5.0,56,0.00,,,0.00,Wunderground v.1.15,2013-02-25 15:44:00,
2013-02-25 10:49:00,37.5,23.6,30.22,NE,49,4.0,5.0,57,0.00,,,0.00,Wunderground v.1.15,2013-02-25 15:49:00,
2013-02-25 10:55:00,37.6,23.3,30.22,NNE,20,5.0,10.0,56,0.00,,,0.00,Wunderground v.1.15,2013-02-25 15:55:00,
2013-02-25 11:00:00,37.7,23.8,30.21,North,11,6.0,6.0,57,0.00,,,0.00,Wunderground v.1.15,2013-02-25 16:00:00,
2013-02-25 11:06:00,37.6,22.9,30.21,NNE,14,5.0,6.0,55,0.00,,,0.00,Wunderground v.1.15,2013-02-25 16:06:00,
2013-02-25 11:12:00,38.0,22.8,30.21,NE,52,5.0,5.0,54,0.00,,,0.00,Wunderground v.1.15,2013-02-25 16:12:00,
2013-02-25 11:17:00,37.9,23.6,30.21,NNE,28,5.0,7.0,56,0.00,,,0.00,Wunderground v.1.15,2013-02-25 16:17:00,
2013-02-25 11:23:00,38.2,23.9,30.21,NE,42,3.0,5.0,56,0.00,,,0.00,Wunderground v.1.15,2013-02-25 16:23:00,
2013-02-25 11:29:00,38.5,24.1,30.21,NNE,13,3.0,9.0,56,0.00,,,0.00,Wunderground v.1.15,2013-02-25 16:29:00,
2013-02-25 11:35:00,38.4,24.1,30.21,ENE,69,4.0,7.0,56,0.00,,,0.00,Wunderground v.1.15,2013-02-25 16:35:00,
2013-02-25 11:41:00,38.7,23.9,30.20,ENE,62,3.0,3.0,55,0.00,,,0.00,Wunderground v.1.15,2013-02-25 16:41:00,
2013-02-25 11:46:00,38.9,24.1,30.20,NNE,17,4.0,4.0,55,0.00,,,0.00,Wunderground v.1.15,2013-02-25 16:46:00,
2013-02-25 11:52:00,39.2,24.8,30.21,North,9,3.0,6.0,56,0.00,,,0.00,Wunderground v.1.15,2013-02-25 16:52:00,
2013-02-25 11:58:00,39.1,24.3,30.21,NE,40,3.0,6.0,55,0.00,,,0.00,Wunderground v.1.15,2013-02-25 16:58:00,
2013-02-25 12:04:00,39.6,24.7,30.20,NE,55,4.0,7.0,55,0.00,,,0.00,Wunderground v.1.15,2013-02-25 17:04:00,
2013-02-25 12:10:00,39.5,24.7,30.20,NNE,22,4.0,5.0,55,0.00,,,0.00,Wunderground v.1.15,2013-02-25 17:10:00,
2013-02-25 12:16:00,39.4,24.1,30.19,NNE,31,4.0,8.0,54,0.00,,,0.00,Wunderground v.1.15,2013-02-25 17:16:00,
2013-02-25 12:22:00,39.3,23.6,30.18,ENE,76,5.0,7.0,53,0.00,,,0.00,Wunderground v.1.15,2013-02-25 17:22:00,
2013-02-25 12:28:00,39.4,24.6,30.18,North,11,6.0,10.0,55,0.00,,,0.00,Wunderground v.1.15,2013-02-25 17:28:00,
2013-02-25 12:34:00,39.6,24.7,30.18,NNE,19,5.0,6.0,55,0.00,,,0.00,Wunderground v.1.15,2013-02-25 17:34:00,
2013-02-25 12:40:00,39.7,24.8,30.18,NE,49,5.0,5.0,55,0.00,,,0.00,Wunderground v.1.15,2013-02-25 17:40:00,
2013-02-25 12:46:00,39.5,24.7,30.17,NE,46,5.0,6.0,55,0.00,,,0.00,Wunderground v.1.15,2013-02-25 17:46:00,
2013-02-25 12:52:00,39.7,24.4,30.17,NE,48,4.0,4.0,54,0.00,,,0.00,Wunderground v.1.15,2013-02-25 17:52:00,
2013-02-25 12:57:00,40.2,26.2,30.18,NE,46,4.0,6.0,57,0.00,,,0.00,Wunderground v.1.15,2013-02-25 17:57:00,
2013-02-25 13:03:00,40.0,24.2,30.18,ENE,64,5.0,5.0,53,0.00,,,0.00,Wunderground v.1.15,2013-02-25 18:03:00,
2013-02-25 13:09:00,39.7,24.8,30.17,NE,55,4.0,5.0,55,0.00,,,0.00,Wunderground v.1.15,2013-02-25 18:09:00,
2013-02-25 13:15:00,40.0,25.1,30.18,NE,35,3.0,5.0,55,0.00,,,0.00,Wunderground v.1.15,2013-02-25 18:15:00,
2013-02-25 13:21:00,40.1,24.8,30.17,NE,44,4.0,8.0,54,0.00,,,0.00,Wunderground v.1.15,2013-02-25 18:21:00,
2013-02-25 13:27:00,40.1,25.2,30.17,NNE,17,5.0,8.0,55,0.00,,,0.00,Wunderground v.1.15,2013-02-25 18:27:00,
2013-02-25 13:33:00,40.2,25.3,30.18,NE,36,4.0,5.0,55,0.00,,,0.00,Wunderground v.1.15,2013-02-25 18:33:00,
2013-02-25 13:39:00,40.3,25.0,30.18,NNW,343,3.0,5.0,54,0.00,,,0.00,Wunderground v.1.15,2013-02-25 18:39:00,
2013-02-25 13:44:00,40.2,25.3,30.18,NNE,25,3.0,4.0,55,0.00,,,0.00,Wunderground v.1.15,2013-02-25 18:44:00,
2013-02-25 13:50:00,40.4,24.6,30.18,NNE,25,2.0,2.0,53,0.00,,,0.00,Wunderground v.1.15,2013-02-25 18:50:00,
2013-02-25 13:56:00,40.6,25.2,30.18,NNE,26,1.0,2.0,54,0.00,,,0.00,Wunderground v.1.15,2013-02-25 18:56:00,
2013-02-25 14:02:00,40.7,25.8,30.18,NE,46,1.0,1.0,55,0.00,,,0.00,Wunderground v.1.15,2013-02-25 19:02:00,
2013-02-25 14:08:00,40.9,24.6,30.17,NNE,22,2.0,5.0,52,0.00,,,0.00,Wunderground v.1.15,2013-02-25 19:08:00,
2013-02-25 14:14:00,40.7,24.4,30.17,East,83,3.0,5.0,52,0.00,,,0.00,Wunderground v.1.15,2013-02-25 19:14:00,
2013-02-25 14:20:00,40.6,24.8,30.16,NE,47,3.0,5.0,53,0.00,,,0.00,Wunderground v.1.15,2013-02-25 19:20:00,
2013-02-25 14:26:00,40.6,24.8,30.16,ENE,63,3.0,6.0,53,0.00,,,0.00,Wunderground v.1.15,2013-02-25 19:26:00,
2013-02-25 14:31:00,40.5,25.1,30.16,NE,34,3.0,3.0,54,0.00,,,0.00,Wunderground v.1.15,2013-02-25 19:31:00,
2013-02-25 14:37:00,40.7,25.3,30.16,NE,44,2.0,6.0,54,0.00,,,0.00,Wunderground v.1.15,2013-02-25 19:37:00,
2013-02-25 14:43:00,40.7,24.9,30.16,NNE,21,3.0,5.0,53,0.00,,,0.00,Wunderground v.1.15,2013-02-25 19:43:00,
2013-02-25 14:48:00,40.9,26.0,30.17,North,355,3.0,8.0,55,0.00,,,0.00,Wunderground v.1.15,2013-02-25 19:48:00,
2013-02-25 14:54:00,40.8,25.0,30.16,East,90,4.0,6.0,53,0.00,,,0.00,Wunderground v.1.15,2013-02-25 19:54:00,
2013-02-25 15:00:00,40.7,24.9,30.16,ENE,61,4.0,4.0,53,0.00,,,0.00,Wunderground v.1.15,2013-02-25 20:00:00,
2013-02-25 15:06:00,40.8,24.5,30.16,East,86,3.0,4.0,52,0.00,,,0.00,Wunderground v.1.15,2013-02-25 20:06:00,
2013-02-25 15:12:00,41.0,25.2,30.16,NE,34,2.0,3.0,53,0.00,,,0.00,Wunderground v.1.15,2013-02-25 20:12:00,
2013-02-25 15:17:00,41.0,25.2,30.15,NE,55,3.0,6.0,53,0.00,,,0.00,Wunderground v.1.15,2013-02-25 20:17:00,
2013-02-25 15:23:00,40.9,25.1,30.15,NNE,31,3.0,3.0,53,0.00,,,0.00,Wunderground v.1.15,2013-02-25 20:23:00,
2013-02-25 15:29:00,40.9,25.1,30.15,NNE,21,3.0,5.0,53,0.00,,,0.00,Wunderground v.1.15,2013-02-25 20:29:00,
2013-02-25 15:35:00,40.8,25.0,30.16,NE,51,4.0,4.0,53,0.00,,,0.00,Wunderground v.1.15,2013-02-25 20:35:00,
2013-02-25 15:41:00,40.7,25.3,30.16,ENE,59,3.0,3.0,54,0.00,,,0.00,Wunderground v.1.15,2013-02-25 20:41:00,
2013-02-25 15:47:00,40.6,25.2,30.15,NE,48,2.0,3.0,54,0.00,,,0.00,Wunderground v.1.15,2013-02-25 20:47:00,
2013-02-25 15:53:00,40.6,25.7,30.15,NE,47,2.0,3.0,55,0.00,,,0.00,Wunderground v.1.15,2013-02-25 20:53:00,
2013-02-25 15:58:00,40.6,25.2,30.16,NNE,26,2.0,3.0,54,0.00,,,0.00,Wunderground v.1.15,2013-02-25 20:58:00,
2013-02-25 16:04:00,40.6,25.7,30.16,NNE,27,2.0,4.0,55,0.00,,,0.00,Wunderground v.1.15,2013-02-25 21:04:00,
2013-02-25 16:09:00,40.6,25.2,30.16,NNW,346,2.0,4.0,54,0.00,,,0.00,Wunderground v.1.15,2013-02-25 21:09:00,
2013-02-25 16:15:00,40.5,25.6,30.16,NE,47,2.0,2.0,55,0.00,,,0.00,Wunderground v.1.15,2013-02-25 21:15:00,
2013-02-25 16:21:00,40.4,25.1,30.16,NE,47,2.0,2.0,54,0.00,,,0.00,Wunderground v.1.15,2013-02-25 21:21:00,
2013-02-25 16:27:00,40.5,26.0,30.15,NE,46,2.0,3.0,56,0.00,,,0.00,Wunderground v.1.15,2013-02-25 21:27:00,
2013-02-25 16:33:00,40.5,25.6,30.15,ENE,61,3.0,5.0,55,0.00,,,0.00,Wunderground v.1.15,2013-02-25 21:33:00,
2013-02-25 16:39:00,40.5,26.0,30.14,NE,54,4.0,5.0,56,0.00,,,0.00,Wunderground v.1.15,2013-02-25 21:39:00,
2013-02-25 16:45:00,40.5,26.0,30.15,NNE,24,3.0,4.0,56,0.00,,,0.00,Wunderground v.1.15,2013-02-25 21:45:00,
2013-02-25 16:51:00,40.5,26.0,30.15,NE,47,2.0,4.0,56,0.00,,,0.00,Wunderground v.1.15,2013-02-25 21:51:00,
2013-02-25 16:56:00,40.4,25.9,30.15,NNE,19,3.0,5.0,56,0.00,,,0.00,Wunderground v.1.15,2013-02-25 21:56:00,
2013-02-25 17:02:00,40.2,25.7,30.14,NNE,31,4.0,4.0,56,0.00,,,0.00,Wunderground v.1.15,2013-02-25 22:02:00,
2013-02-25 17:08:00,40.2,25.3,30.15,NE,44,3.0,5.0,55,0.00,,,0.00,Wunderground v.1.15,2013-02-25 22:08:00,
2013-02-25 17:13:00,40.1,25.2,30.15,NE,50,4.0,6.0,55,0.00,,,0.00,Wunderground v.1.15,2013-02-25 22:13:00,
2013-02-25 17:19:00,39.9,25.0,30.14,NE,44,5.0,10.0,55,0.00,,,0.00,Wunderground v.1.15,2013-02-25 22:19:00,
2013-02-25 17:25:00,39.8,25.8,30.15,NE,40,5.0,6.0,57,0.00,,,0.00,Wunderground v.1.15,2013-02-25 22:25:00,
2013-02-25 17:31:00,39.6,25.2,30.14,NE,48,5.0,5.0,56,0.00,,,0.00,Wunderground v.1.15,2013-02-25 22:31:00,
2013-02-25 17:37:00,39.4,25.0,30.15,NE,48,4.0,7.0,56,0.00,,,0.00,Wunderground v.1.15,2013-02-25 22:37:00,
2013-02-25 17:42:00,39.3,24.9,30.15,NE,49,3.0,4.0,56,0.00,,,0.00,Wunderground v.1.15,2013-02-25 22:42:00,
2013-02-25 17:48:00,39.1,25.6,30.15,NE,39,3.0,4.0,58,0.00,,,0.00,Wunderground v.1.15,2013-02-25 22:48:00,
2013-02-25 17:54:00,38.9,24.9,30.15,NNE,32,4.0,5.0,57,0.00,,,0.00,Wunderground v.1.15,2013-02-25 22:54:00,
2013-02-25 18:00:00,38.8,25.3,30.16,NE,46,4.0,5.0,58,0.00,,,0.00,Wunderground v.1.15,2013-02-25 23:00:00,
2013-02-25 18:06:00,38.7,24.8,30.16,NE,46,3.0,5.0,57,0.00,,,0.00,Wunderground v.1.15,2013-02-25 23:06:00,
2013-02-25 18:12:00,38.4,24.9,30.15,ENE,65,3.0,3.0,58,0.00,,,0.00,Wunderground v.1.15,2013-02-25 23:12:00,
2013-02-25 18:18:00,38.2,24.7,30.16,ENE,65,1.0,3.0,58,0.00,,,0.00,Wunderground v.1.15,2013-02-25 23:18:00,
2013-02-25 18:23:00,38.0,24.5,30.16,ENE,65,0.0,1.0,58,0.00,,,0.00,Wunderground v.1.15,2013-02-25 23:23:00,
2013-02-25 18:28:00,37.8,24.7,30.17,ENE,65,0.0,1.0,59,0.00,,,0.00,Wunderground v.1.15,2013-02-25 23:28:00,
2013-02-25 18:34:00,37.7,24.6,30.17,ENE,65,0.0,0.0,59,0.00,,,0.00,Wunderground v.1.15,2013-02-25 23:34:00,
2013-02-25 18:40:00,37.4,25.2,30.17,ENE,65,0.0,0.0,61,0.00,,,0.00,Wunderground v.1.15,2013-02-25 23:40:00,
2013-02-25 18:46:00,37.0,24.8,30.17,ENE,65,0.0,1.0,61,0.00,,,0.00,Wunderground v.1.15,2013-02-25 23:46:00,
2013-02-25 18:52:00,36.3,24.9,30.16,ENE,65,1.0,2.0,63,0.00,,,0.00,Wunderground v.1.15,2013-02-25 23:52:00,
2013-02-25 18:58:00,35.7,24.7,30.17,ENE,65,1.0,2.0,64,0.00,,,0.00,Wunderground v.1.15,2013-02-25 23:58:00,
2013-02-25 19:04:00,35.4,24.4,30.17,ENE,65,0.0,1.0,64,0.00,,,0.00,Wunderground v.1.15,2013-02-26 00:04:00,
2013-02-25 19:10:00,35.1,25.2,30.17,ENE,65,0.0,1.0,67,0.00,,,0.00,Wunderground v.1.15,2013-02-26 00:10:00,
2013-02-25 19:15:00,34.8,24.6,30.17,ENE,65,0.0,1.0,66,0.00,,,0.00,Wunderground v.1.15,2013-02-26 00:15:00,
2013-02-25 19:21:00,34.6,24.8,30.17,ENE,65,0.0,0.0,67,0.00,,,0.00,Wunderground v.1.15,2013-02-26 00:21:00,
2013-02-25 19:27:00,34.4,24.6,30.18,ENE,65,0.0,0.0,67,0.00,,,0.00,Wunderground v.1.15,2013-02-26 00:27:00,
2013-02-25 19:33:00,34.2,24.7,30.18,ENE,65,0.0,1.0,68,0.00,,,0.00,Wunderground v.1.15,2013-02-26 00:33:00,
2013-02-25 19:39:00,34.1,24.3,30.17,ENE,65,0.0,1.0,67,0.00,,,0.00,Wunderground v.1.15,2013-02-26 00:39:00,
2013-02-25 19:44:00,34.0,24.9,30.18,ENE,65,0.0,1.0,69,0.00,,,0.00,Wunderground v.1.15,2013-02-26 00:44:00,
2013-02-25 19:50:00,33.6,24.5,30.18,ENE,65,0.0,1.0,69,0.00,,,0.00,Wunderground v.1.15,2013-02-26 00:50:00,
2013-02-25 19:56:00,33.3,24.6,30.18,ENE,65,1.0,1.0,70,0.00,,,0.00,Wunderground v.1.15,2013-02-26 00:56:00,
2013-02-25 20:02:00,33.1,24.7,30.17,ENE,65,1.0,2.0,71,0.00,,,0.00,Wunderground v.1.15,2013-02-26 01:02:00,
2013-02-25 20:07:00,32.5,24.8,30.17,ENE,65,1.0,2.0,73,0.00,,,0.00,Wunderground v.1.15,2013-02-26 01:07:00,
2013-02-25 20:13:00,32.3,24.6,30.17,ENE,65,1.0,1.0,73,0.00,,,0.00,Wunderground v.1.15,2013-02-26 01:13:00,
2013-02-25 20:19:00,32.2,24.8,30.18,ENE,65,1.0,1.0,74,0.00,,,0.00,Wunderground v.1.15,2013-02-26 01:19:00,
2013-02-25 20:25:00,32.1,24.4,30.18,ENE,65,0.0,1.0,73,0.00,,,0.00,Wunderground v.1.15,2013-02-26 01:25:00,
2013-02-25 20:30:00,32.1,24.7,30.18,ENE,65,0.0,0.0,74,0.00,,,0.00,Wunderground v.1.15,2013-02-26 01:30:00,
2013-02-25 20:36:00,32.0,24.6,30.18,ENE,65,0.0,2.0,74,0.00,,,0.00,Wunderground v.1.15,2013-02-26 01:36:00,
2013-02-25 20:42:00,31.8,24.8,30.17,ENE,65,1.0,1.0,75,0.00,,,0.00,Wunderground v.1.15,2013-02-26 01:42:00,
2013-02-25 20:48:00,31.6,24.6,30.18,ENE,65,0.0,1.0,75,0.00,,,0.00,Wunderground v.1.15,2013-02-26 01:48:00,
2013-02-25 20:53:00,31.7,24.4,30.18,ENE,65,0.0,0.0,74,0.00,,,0.00,Wunderground v.1.15,2013-02-26 01:53:00,
2013-02-25 20:59:00,32.0,24.6,30.17,ENE,62,0.0,3.0,74,0.00,,,0.00,Wunderground v.1.15,2013-02-26 01:59:00,
2013-02-25 21:05:00,32.0,24.6,30.17,ENE,62,1.0,2.0,74,0.00,,,0.00,Wunderground v.1.15,2013-02-26 02:05:00,
2013-02-25 21:11:00,31.9,24.9,30.17,ENE,62,1.0,1.0,75,0.00,,,0.00,Wunderground v.1.15,2013-02-26 02:11:00,
2013-02-25 21:16:00,31.9,24.9,30.18,ENE,62,0.0,1.0,75,0.00,,,0.00,Wunderground v.1.15,2013-02-26 02:16:00,
2013-02-25 21:22:00,32.0,24.6,30.18,ENE,62,0.0,0.0,74,0.00,,,0.00,Wunderground v.1.15,2013-02-26 02:22:00,
2013-02-25 21:28:00,32.3,24.9,30.18,ENE,62,0.0,1.0,74,0.00,,,0.00,Wunderground v.1.15,2013-02-26 02:28:00,
2013-02-25 21:34:00,32.2,24.8,30.17,ENE,62,1.0,2.0,74,0.00,,,0.00,Wunderground v.1.15,2013-02-26 02:34:00,
2013-02-25 21:40:00,31.5,24.8,30.16,ENE,62,2.0,2.0,76,0.00,,,0.00,Wunderground v.1.15,2013-02-26 02:40:00,
2013-02-25 21:46:00,31.3,24.6,30.16,ENE,60,1.0,3.0,76,0.00,,,0.00,Wunderground v.1.15,2013-02-26 02:46:00,
2013-02-25 21:51:00,31.4,24.7,30.16,ENE,61,0.0,1.0,76,0.00,,,0.00,Wunderground v.1.15,2013-02-26 02:51:00,
2013-02-25 21:57:00,31.8,24.8,30.17,ENE,58,0.0,2.0,75,0.00,,,0.00,Wunderground v.1.15,2013-02-26 02:57:00,
2013-02-25 22:03:00,32.4,24.7,30.17,ENE,58,1.0,1.0,73,0.00,,,0.00,Wunderground v.1.15,2013-02-26 03:03:00,
2013-02-25 22:09:00,33.1,25.1,30.17,ENE,57,1.0,4.0,72,0.00,,,0.00,Wunderground v.1.15,2013-02-26 03:09:00,
2013-02-25 22:14:00,33.2,25.1,30.17,NE,54,2.0,3.0,72,0.00,,,0.00,Wunderground v.1.15,2013-02-26 03:14:00,
2013-02-25 22:20:00,33.3,25.2,30.17,ENE,59,2.0,2.0,72,0.00,,,0.00,Wunderground v.1.15,2013-02-26 03:20:00,
2013-02-25 22:26:00,33.4,25.3,30.17,ENE,59,1.0,2.0,72,0.00,,,0.00,Wunderground v.1.15,2013-02-26 03:26:00,
2013-02-25 22:32:00,33.7,25.3,30.17,NE,35,1.0,2.0,71,0.00,,,0.00,Wunderground v.1.15,2013-02-26 03:32:00,
2013-02-25 22:37:00,33.9,25.5,30.16,ENE,58,1.0,4.0,71,0.00,,,0.00,Wunderground v.1.15,2013-02-26 03:37:00,
2013-02-25 22:43:00,34.0,25.6,30.15,NE,50,2.0,3.0,71,0.00,,,0.00,Wunderground v.1.15,2013-02-26 03:43:00,
2013-02-25 22:49:00,34.2,25.1,30.16,NE,41,2.0,3.0,69,0.00,,,0.00,Wunderground v.1.15,2013-02-26 03:49:00,
2013-02-25 22:55:00,34.3,25.2,30.16,NE,44,1.0,3.0,69,0.00,,,0.00,Wunderground v.1.15,2013-02-26 03:55:00,
2013-02-25 23:00:00,34.4,25.6,30.17,NE,44,1.0,1.0,70,0.00,,,0.00,Wunderground v.1.15,2013-02-26 04:00:00,
2013-02-25 23:06:00,34.3,25.2,30.16,NE,44,1.0,3.0,69,0.00,,,0.00,Wunderground v.1.15,2013-02-26 04:06:00,
2013-02-25 23:12:00,34.1,25.3,30.16,NE,46,2.0,3.0,70,0.00,,,0.00,Wunderground v.1.15,2013-02-26 04:12:00,
2013-02-25 23:18:00,34.0,25.6,30.15,ENE,61,2.0,4.0,71,0.00,,,0.00,Wunderground v.1.15,2013-02-26 04:18:00,
2013-02-25 23:24:00,34.1,25.3,30.16,NE,51,2.0,3.0,70,0.00,,,0.00,Wunderground v.1.15,2013-02-26 04:24:00,
2013-02-25 23:30:00,34.1,25.7,30.16,NE,51,1.0,1.0,71,0.00,,,0.00,Wunderground v.1.15,2013-02-26 04:30:00,
2013-02-25 23:36:00,34.0,25.2,30.16,NE,51,1.0,1.0,70,0.00,,,0.00,Wunderground v.1.15,2013-02-26 04:36:00,
2013-02-25 23:41:00,34.1,25.7,30.16,NE,43,2.0,5.0,71,0.00,,,0.00,Wunderground v.1.15,2013-02-26 04:41:00,
2013-02-25 23:47:00,34.1,25.7,30.16,NE,43,2.0,5.0,71,0.00,,,0.00,Wunderground v.1.15,2013-02-26 04:47:00,
2013-02-25 23:53:00,34.0,25.6,30.16,NE,43,1.0,2.0,71,0.00,,,0.00,Wunderground v.1.15,2013-02-26 04:53:00,
2013-02-25 23:58:00,34.2,25.8,30.16,NE,43,1.0,4.0,71,0.00,,,0.00,Wunderground v.1.15,2013-02-26 04:58:00,